[[{"header":{"parameterUnit":"m.s-1","parameterCategory":1,"la1":30.2991,"la2":30.254,"lo1":-89.0895,"lo2":-89.0444,"dy":0.0017,"dx":0.0017,"nx":28,"ny":28,"refTime":"2025-04-11T09:00:00:Z","depth":0,"parameterNumber":2,"parameterNumberName":"U-component_of_WINDS"},"data":[0,0,0,0,0,0,0,0,0,0,0,0,0,0,0,0,0,0,0,0,0,0,0,0,0,0,0,0,0,0,0,0,0,0,0,0,0,0,0,0,0,0,0,0,0,0,0,0,0,0,0,0,0,0,0,0,0,0,0.9857,0.9857,0,0.9848,0.9848,0.9848,0.9815,0.9814,0.9814,0.9813,0.9804,0.9805,0.9805,0,0,0,0,0,0,0,0,0,0,0,0,0,0.9847,0.9847,0.9857,0.9857,0.9857,0.9848,0.9848,0.9848,0.9815,0.9814,0.9813,0.9812,0.9804,0.9805,0.9805,0,0,0,0,0,0,0,0,0,0,0,0,0,0.9846,0.9848,0.9857,0.9839,0.9838,0.9848,0.9848,0.9848,0.9815,0.9814,0.9813,0.9812,0.9804,0.9804,0.9805,0.9832,0,0,0.9807,0.9808,0,0,0,0,0,0,0,0,0.9846,0.9846,0.9842,0.9841,0.9839,0.9831,0.9841,0.9842,0.9816,0.9824,0.9813,0.9812,0.9814,0.9814,0.9815,0.9831,0.9831,0.9807,0.9808,0.9808,0.9808,0,0,0,0,0,0,0,0.9846,0.9847,0.9853,0.9842,0.984,0.9832,0.9831,0.9841,0.9825,0.9823,0.9821,0.982,0.9813,0.9814,0.9814,0.9831,0.9807,0.9808,0.9808,0.9809,0.9869,0.987,0,0,0,0,0,0,0.9849,0.9847,0.9854,0.9853,0.984,0.9833,0.9832,0.9835,0.9825,0.9823,0.9821,0.9819,0.9813,0.9813,0.9814,0.9844,0.9808,0.9809,0.9809,0.9868,0.9869,0.987,0,0,0,0,0,0,0.9849,0.985,0.9854,0.9849,0.9849,0.9835,0.9838,0.9835,0.9836,0.9824,0.9821,0.9825,0.9813,0.9813,0.9827,0.9844,0.9809,0.981,0.9866,0.9868,0.987,0.9906,0,0,0,0,0,0,0.9848,0.985,0.986,0.985,0.985,0.9868,0.9839,0.9836,0.9838,0.9834,0.9826,0.9824,0.9812,0.9827,0.9828,0.9844,0.981,0.9865,0.9867,0.9869,0.9903,0.9908,0.9913,0,0,0,0,0,0.9848,0.987,0.986,0.9861,0.9862,0.9869,0.9869,0.9854,0.9839,0.9849,0.9841,0.9824,0.9841,0.9828,0.983,0.9846,0.9864,0.9866,0.9869,0.9901,0.9907,0.9913,0,0,0,0,0,0,0.9882,0.9869,0.9857,0.9877,0.9874,0.9863,0.9875,0.9861,0.9863,0.986,0.9841,0.984,0.9857,0.9853,0.9839,0.9871,0.985,0.9853,0.9874,0.988,0.9885,0.9886,0.9811,0,0,0,0,0,0.9892,0.9899,0.9887,0.9905,0.9904,0.989,0.9893,0.9881,0.9878,0.9877,0.987,0.9867,0.9872,0.9876,0.9879,0.9902,0.99,0.9914,0.9919,0.9923,0.9926,0.9938,0.9945,0.9879,0.9879,0.9879,0,0,0.9913,0.9906,0.9911,0.9912,0.9908,0.9916,0.9889,0.9898,0.9904,0.9878,0.9892,0.9886,0.9882,0.9901,0.9909,0.9898,0.9944,0.9927,0.993,0.9931,0.9942,0.9948,0.9954,0.9881,0.9881,0.988,0,0,0.9954,0.9949,0.9964,0.9961,0.9956,0.9947,0.995,0.9941,0.9937,0.995,0.9931,0.9937,0.9946,0.9944,0.9944,0.9984,0.997,0.9986,1.0013,1.0025,1.003,1.0034,1.0049,1.0055,0.9989,0.9989,0.9989,0,0.998,0.999,0.9973,0.9984,0.9985,0.9961,0.9976,0.9974,0.9971,0.9973,0.996,0.9971,0.9966,0.9985,0.9994,0.9995,0.9999,0.9987,1.0031,1.0035,1.0039,1.0053,1.0058,0.9991,0.9991,0.9991,0.9991,0,1.0022,1.003,1.0043,1.004,1.0042,1.0055,1.004,1.0045,1.0033,1.0025,1.0039,1.0033,1.0035,1.0038,1.0027,1.0055,1.0049,1.0034,1.0012,1.0047,1.006,1.0065,0.9994,0.9993,0.9993,0.9992,0,0,1.0085,1.0073,1.0078,1.0076,1.0069,1.0075,1.0087,1.0089,1.0093,1.0092,1.0101,1.0109,1.0095,1.0095,1.0084,1.0094,1.0127,1.0078,1.0078,1.0088,1.0158,1.017,1.0176,1.0117,1.0118,1.0119,1.0159,0,1.0124,1.0144,1.0129,1.0151,1.0158,1.0136,1.0146,1.0143,1.0136,1.0141,1.0133,1.0139,1.012,1.012,1.0129,1.0121,1.0141,1.0118,1.0127,1.0127,1.0129,1.0183,1.0195,1.0233,1.0163,1.0164,1.0165,0,1.0173,1.0173,1.0196,1.0188,1.019,1.02,1.02,1.0205,1.0202,1.0196,1.0196,1.0182,1.0193,1.0171,1.0187,1.0171,1.0174,1.0171,1.0172,1.0172,1.0149,1.0185,1.0245,1.0251,1.0172,1.0172,1.0171,0,1.0217,1.0223,1.0238,1.0237,1.0228,1.0235,1.0231,1.0226,1.0228,1.0229,1.023,1.0232,1.0234,1.0236,1.0223,1.0208,1.024,1.0217,1.0236,1.0236,1.0244,1.0244,1.0305,1.0245,1.0245,1.0245,1.0244,0,1.0263,1.0278,1.0257,1.0266,1.0283,1.0265,1.0282,1.0276,1.0272,1.028,1.026,1.0268,1.025,1.0256,1.0245,1.026,1.0261,1.0256,1.0254,1.0258,1.0259,1.026,1.0258,1.0246,1.0246,1.0245,1.0245,0,1.0315,1.0302,1.0316,1.0306,1.0304,1.0316,1.0307,1.0315,1.0307,1.0317,1.0318,1.0304,1.031,1.0297,1.0301,1.0294,1.0316,1.0308,1.0317,1.0315,1.0334,1.0333,1.0399,1.0407,1.0341,1.0342,1.0342,0,1.0345,1.0356,1.0347,1.035,1.0348,1.0354,1.0356,1.0339,1.0342,1.0339,1.0348,1.0352,1.0354,1.0365,1.0356,1.0359,1.0352,1.0375,1.0352,1.0357,1.0353,1.0353,1.0354,1.038,1.0381,1.0381,1.0382,0,1.04,1.0393,1.0397,1.0399,1.0401,1.0402,1.0401,1.0405,1.0387,1.0392,1.0398,1.04,1.0404,1.0408,1.0409,1.0406,1.0391,1.0389,1.0393,1.0399,1.0403,1.0402,1.033,1.0387,1.0387,1.0386,1.0386,1.0386,1.0443,1.0452,1.0447,1.0451,1.0449,1.0448,1.0455,1.0448,1.0452,1.0454,1.0444,1.0452,1.0448,1.0448,1.0446,1.0452,1.0442,1.0448,1.045,1.0452,1.0456,1.0402,1.0452,1.0452,1.0452,1.0452,1.0451,0,1.0498,1.0493,1.0498,1.0497,1.0501,1.0486,1.0484,1.0488,1.0496,1.0493,1.0496,1.0503,1.0507,1.0498,1.0501,1.0508,1.0501,1.0509,1.0509,1.0509,1.0464,1.046,1.0515,1.0515,1.0515,1.0515,1.0515,1.0515,1.0527,1.0541,1.0533,1.0546,1.0542,1.0549,1.055,1.0549,1.0547,1.0555,1.0559,1.0553,1.0548,1.055,1.0554,1.0551,1.0553,1.0564,1.0559,1.0518,1.0512,1.0506,1.0502,1.0565,1.0565,1.0603,1.0603,1.0604]},{"header":{"parameterUnit":"m.s-1","parameterCategory":1,"la1":30.2991,"la2":30.254,"lo1":-89.0895,"lo2":-89.0444,"dy":0.0017,"dx":0.0017,"nx":28,"ny":28,"refTime":"2025-04-11T09:00:00:Z","depth":0,"parameterNumber":3,"parameterNumberName":"V-component_of_WINDS"},"data":[0,0,0,0,0,0,0,0,0,0,0,0,0,0,0,0,0,0,0,0,0,0,0,0,0,0,0,0,0,0,0,0,0,0,0,0,0,0,0,0,0,0,0,0,0,0,0,0,0,0,0,0,0,0,0,0,0,0,-5.6643,-5.6646,0,-5.6865,-5.6868,-5.687,-5.6893,-5.6891,-5.6888,-5.6886,-5.7112,-5.712,-5.7128,0,0,0,0,0,0,0,0,0,0,0,0,0,-5.6239,-5.6246,-5.6643,-5.6646,-5.6649,-5.6865,-5.6868,-5.6871,-5.6893,-5.689,-5.6888,-5.6885,-5.7109,-5.7119,-5.7129,0,0,0,0,0,0,0,0,0,0,0,0,0,-5.6433,-5.6248,-5.6643,-5.6686,-5.6692,-5.6864,-5.6868,-5.6872,-5.6894,-5.689,-5.6887,-5.6884,-5.7106,-5.7118,-5.713,-5.7274,0,0,-5.7167,-5.7172,0,0,0,0,0,0,0,0,-5.6422,-5.6448,-5.6677,-5.6683,-5.669,-5.6848,-5.6808,-5.7007,-5.6895,-5.6817,-5.6886,-5.6882,-5.7027,-5.7045,-5.7094,-5.7284,-5.7294,-5.7168,-5.7176,-5.7181,-5.7184,0,0,0,0,0,0,0,-5.6408,-5.6438,-5.6731,-5.668,-5.6689,-5.6694,-5.6718,-5.6846,-5.6938,-5.6824,-5.6826,-5.6852,-5.703,-5.7083,-5.71,-5.7297,-5.7168,-5.7179,-5.7186,-5.7191,-5.7619,-5.7623,0,0,0,0,0,0,-5.6387,-5.6427,-5.6724,-5.6738,-5.6545,-5.6704,-5.6731,-5.6801,-5.6937,-5.6955,-5.6855,-5.6852,-5.7063,-5.7086,-5.7108,-5.7287,-5.7181,-5.7192,-5.7199,-5.7615,-5.762,-5.7624,0,0,0,0,0,0,-5.6378,-5.6413,-5.6715,-5.6583,-5.6622,-5.6715,-5.6793,-5.6807,-5.686,-5.6961,-5.6977,-5.6892,-5.7062,-5.7091,-5.7233,-5.7295,-5.7198,-5.7209,-5.761,-5.7617,-5.7622,-5.7646,0,0,0,0,0,0,-5.6366,-5.641,-5.6465,-5.6584,-5.6629,-5.6837,-5.6797,-5.6814,-5.6881,-5.688,-5.7,-5.7016,-5.7061,-5.7215,-5.7245,-5.731,-5.7218,-5.7605,-5.7613,-5.762,-5.764,-5.7652,-5.7663,0,0,0,0,0,-5.6352,-5.6462,-5.6468,-5.6504,-5.67,-5.684,-5.6866,-5.6916,-5.6886,-5.6943,-5.7008,-5.7012,-5.7283,-5.7229,-5.7264,-5.7333,-5.7601,-5.7611,-5.762,-5.7635,-5.765,-5.7662,0,0,0,0,0,0,-5.6348,-5.6479,-5.6486,-5.6639,-5.6729,-5.6844,-5.6917,-5.693,-5.7029,-5.7024,-5.7081,-5.7108,-5.7249,-5.7305,-5.7242,-5.7481,-5.7439,-5.7456,-5.7439,-5.7454,-5.7465,-5.7449,-5.7229,0,0,0,0,0,-5.6365,-5.6468,-5.6576,-5.67,-5.6745,-5.6823,-5.6886,-5.6917,-5.7012,-5.705,-5.7125,-5.7216,-5.7323,-5.7391,-5.7494,-5.7648,-5.7675,-5.7713,-5.7724,-5.7733,-5.7747,-5.7834,-5.7853,-5.7654,-5.7654,-5.7654,0,0,-5.6401,-5.6485,-5.6546,-5.6702,-5.6775,-5.6881,-5.6855,-5.6967,-5.7047,-5.7067,-5.7207,-5.7265,-5.7371,-5.752,-5.759,-5.7572,-5.7808,-5.7744,-5.7751,-5.776,-5.7846,-5.7864,-5.7881,-5.766,-5.7659,-5.7658,0,0,-5.6521,-5.6594,-5.6707,-5.6781,-5.6892,-5.6944,-5.697,-5.7085,-5.7125,-5.7266,-5.7284,-5.7379,-5.756,-5.7635,-5.7697,-5.7847,-5.7856,-5.7879,-5.7938,-5.8023,-5.8038,-5.8053,-5.8108,-5.8127,-5.7892,-5.7892,-5.7892,0,-5.6551,-5.6712,-5.6763,-5.6876,-5.6944,-5.6968,-5.7083,-5.7152,-5.7291,-5.7338,-5.7315,-5.7545,-5.7617,-5.7786,-5.7823,-5.7871,-5.7905,-5.7866,-5.8032,-5.8047,-5.8061,-5.8114,-5.8135,-5.7895,-5.7894,-5.7894,-5.7894,0,-5.6745,-5.6855,-5.6933,-5.7068,-5.7145,-5.7258,-5.7327,-5.7399,-5.7423,-5.7477,-5.7621,-5.771,-5.7832,-5.7874,-5.7898,-5.8047,-5.8032,-5.802,-5.798,-5.8081,-5.8133,-5.8153,-5.7898,-5.7897,-5.7896,-5.7896,0,0,-5.6868,-5.7031,-5.7059,-5.7122,-5.7247,-5.7333,-5.7448,-5.7568,-5.763,-5.7725,-5.7823,-5.7976,-5.7967,-5.8037,-5.807,-5.8144,-5.826,-5.8124,-5.8127,-5.8148,-5.8431,-5.8441,-5.8464,-5.8266,-5.827,-5.8273,-5.8423,0,-5.7004,-5.721,-5.726,-5.7435,-5.754,-5.7564,-5.7664,-5.7752,-5.7806,-5.7902,-5.796,-5.8069,-5.8047,-5.809,-5.8165,-5.823,-5.8318,-5.822,-5.8359,-5.8363,-5.8333,-5.849,-5.85,-5.8637,-5.8443,-5.8447,-5.8449,0,-5.719,-5.7291,-5.7477,-5.7591,-5.7636,-5.7725,-5.7841,-5.7932,-5.8032,-5.8066,-5.8146,-5.8172,-5.8292,-5.8245,-5.8413,-5.8345,-5.8404,-5.8445,-5.8452,-5.8468,-5.8413,-5.8512,-5.8682,-5.8703,-5.8481,-5.8478,-5.8476,0,-5.7264,-5.7446,-5.7582,-5.7634,-5.7769,-5.7832,-5.7891,-5.7988,-5.8057,-5.8158,-5.8204,-5.8317,-5.8379,-5.8466,-5.8522,-5.8482,-5.8686,-5.8642,-5.8718,-5.8717,-5.8761,-5.8758,-5.8945,-5.8797,-5.8796,-5.8796,-5.8796,0,-5.7411,-5.7525,-5.7617,-5.7701,-5.7829,-5.7886,-5.8011,-5.807,-5.8157,-5.8253,-5.828,-5.8369,-5.8437,-5.8536,-5.858,-5.8714,-5.8741,-5.8772,-5.8783,-5.8771,-5.8768,-5.8812,-5.8805,-5.8802,-5.88,-5.8799,-5.8798,0,-5.7516,-5.7582,-5.7732,-5.7848,-5.788,-5.797,-5.8069,-5.8152,-5.8206,-5.8328,-5.8359,-5.8445,-5.8563,-5.8627,-5.8774,-5.8804,-5.8954,-5.8959,-5.8921,-5.8926,-5.8999,-5.8992,-5.9222,-5.9256,-5.9084,-5.9085,-5.9086,0,-5.7606,-5.7695,-5.7821,-5.7888,-5.7948,-5.8055,-5.8127,-5.8186,-5.8259,-5.8381,-5.8449,-5.8569,-5.8668,-5.8856,-5.8931,-5.9044,-5.9053,-5.9126,-5.907,-5.9056,-5.9057,-5.9051,-5.9061,-5.9136,-5.9138,-5.9139,-5.914,0,-5.7761,-5.779,-5.7892,-5.8008,-5.8093,-5.8186,-5.8278,-5.8331,-5.8405,-5.8487,-5.8609,-5.8686,-5.8837,-5.8956,-5.9076,-5.9136,-5.9152,-5.9157,-5.9181,-5.917,-5.9146,-5.9162,-5.8949,-5.9152,-5.9151,-5.915,-5.9149,-5.9149,-5.7863,-5.7943,-5.8045,-5.8159,-5.8235,-5.8321,-5.8405,-5.8471,-5.8573,-5.8702,-5.873,-5.8859,-5.8958,-5.9121,-5.9185,-5.9287,-5.9273,-5.9306,-5.9316,-5.9324,-5.9328,-5.9128,-5.9308,-5.9308,-5.9308,-5.9308,-5.9307,0,-5.802,-5.8087,-5.8192,-5.8321,-5.8411,-5.8417,-5.852,-5.8595,-5.8708,-5.88,-5.8898,-5.9038,-5.9154,-5.9239,-5.9357,-5.9422,-5.9432,-5.9452,-5.9448,-5.9463,-5.9332,-5.9301,-5.9442,-5.9442,-5.9442,-5.9442,-5.9442,-5.9442,-5.8113,-5.825,-5.8291,-5.8466,-5.8533,-5.866,-5.8718,-5.8798,-5.8872,-5.9028,-5.9125,-5.918,-5.9269,-5.9395,-5.9501,-5.9523,-5.9566,-5.9586,-5.9608,-5.9486,-5.9471,-5.9458,-5.9428,-5.9594,-5.9594,-5.973,-5.9732,-5.9732]}]]